Regional Weather Roundup
Issued by NWS

Home | Current Version | Previous Version | Graphics & Text | Print | Product List | Glossary On
Versions: 1 2 3 4 5 6 7 8 9 10 11 12 13 14 15 16 17 18 19 20 21 22 23 24 25 26 27 28 29 30 31 32 33 34 35 36 37 38 39 40 41 42 43 44 45 46 47 48 49 50
000
ASUS45 KTFX 030419
RWRMT
MONTANA HOURLY WEATHER ROUNDUP
NATIONAL WEATHER SERVICE GREAT FALLS MT
919 PM MST MON MAR 2 2015

NOTE: "FAIR" INDICATES FEW OR NO CLOUDS BELOW 12000 FEET WITH NO
SIGNIFICANT WEATHER AND/OR OBSTRUCTIONS TO VISIBILITY.

* THESE STATIONS ARE NOT UNDER NWS QUALITY CONTROL. THEY DO NOT
   REPORT WEATHER SUCH AS PRECIPITATION OR FOG.

MTZ001>007-043-030500-
WEST OF THE DIVIDE
CITY           SKY/WX    TMP DP  RH WIND       PRES   REMARKS
KALISPELL      CLOUDY    25   7  46 NE15      30.03R WCI  13
MISSOULA       CLOUDY    25  10  53 E21G30    29.95R WCI  10
BUTTE          LGT SNOW  16   7  67 N18G25    29.79R
MULLAN PASS    LGT SNOW  14  12  92 CALM      29.77R VSB 3/4
* ANACONDA     CLOUDY    16   7  67 N20G28     N/A   WCI  -1
* ESSEX        N/A       18   5  57 NE8G16     N/A   WCI   8
* EUREKA APT   PTCLDY    27   0  31 NE9G24    30.08R WCI  18
* HAMILTON APT CLOUDY    23  21  92 N22       29.84R VSB 1    WCI   8
* LIBBY APT    PTCLDY    23  19  85 CALM      30.07R
* LINCOLN      N/A       15   5  64 NE14G26    N/A
* LOOKOUT PASS N/A       19  16  88 NW9G20     N/A   WCI   8
* POLSON       N/A       22   9  57 N3G9       N/A
* RONAN APT    CLOUDY    27   7  42 E11G36     N/A   WCI  17
* SEELEY LAKE  N/A       20   7  57 NE5G13     N/A   WCI  13
* THOMP F APT  MOCLDY    29  10  45 N4         N/A
$$

MTZ008-052>055-030500-
SOUTHWEST MONTANA
CITY           SKY/WX    TMP DP  RH WIND       PRES   REMARKS
BOZEMAN        CLOUDY    23  16  74 VRB5G18   29.82R WCI  16
DILLON         MOCLDY    19   9  65 NE24G31   29.73R WCI   2
* W YELLOWSTON MOCLDY    25  11  55 N6G15      N/A   WCI  18
* THREE FORKS  CLOUDY    19  10  68 N21G32     N/A   WCI   3
* BOULDER HILL N/A       11   6  80 N23G31     N/A   WCI  -9
* MONIDA PASS  N/A       23  10  57 W9G14      N/A   WCI  13
* RAYNOLDS PAS N/A       16  15  96 NW26G34    N/A   WCI  -3
* WHITEHALL    N/A       20   8  59 NE16G29    N/A   WCI   6
* WISE RIVER   N/A       18   5  57 E18G25     N/A   WCI   2
$$

MTZ009>010-012-014-046-048-049-054-030500-
EAST SLOPES AND CENTRAL MONTANA
CITY           SKY/WX    TMP DP  RH WIND       PRES   REMARKS
CUT BANK       CLOUDY    12   7  80 NE15      30.11R WCI  -4
GREAT FALLS    LGT SNOW  18  14  84 NE9       30.06S VSB 2    WCI   7
HELENA         CLOUDY    19   9  65 N15       29.99R WCI   5
MALMSTROM AFB  LGT SNOW  18  14  84 N13       30.09R WCI   5
* CONRAD       CLOUDY    18  12  77 N16G21     N/A   WCI   3
* DEARBORN     N/A       18  13  81 VRB13G26    N/A   WCI   5
* EAST GLACIER N/A       10   6  84 E20G28     N/A   WCI  -9
* MONARCH      N/A        9   5  84 N18G26     N/A   WCI  -9
* PENDROY      N/A       13  11  92 NE22G28    N/A   WCI  -6
* ROGERS PASS  N/A       10   7  88 S5G12      N/A   WCI   1
* SWEET GRASS  N/A       11   3  70 NE18G24    N/A   WCI  -7
* WHITE SULPH  N/A       14   8  77 NW11G19    N/A   WCI   1
$$

MTZ011-013-016-021-035-040-045-047-050-051-030500-
NORTH CENTRAL MONTANA
CITY           SKY/WX    TMP DP  RH WIND       PRES   REMARKS
HAVRE          CLOUDY    18   3  52 N18G24    30.13R WCI   2
LEWISTOWN      LGT SNOW  16  12  84 N14       29.97R VSB 1    WCI   2
* N BAR RANCH  HAZE      14   9  80 N15G21    29.93R VSB 1    WCI  -1
* CHINOOK      CLOUDY    18   3  52 NW14      30.13R WCI   4
* FORT BENTON  CLOUDY    19   7  59 N15G21    30.14R WCI   5
* CHESTER      N/A       15   7  70 NE13G21    N/A   WCI   1
* DENTON       N/A       18  12  77 NW20       N/A   WCI   2
* GEYSER       N/A       16   8  71 N15G20     N/A   WCI   1
* JUDITH GAP   N/A       13  13 100 N34G45     N/A   WCI  -9
* LOMA         N/A       19   8  62 NW17G24    N/A   WCI   4
$$

MTZ017>020-022>027-061-062-030500-
NORTHEAST MONTANA
CITY           SKY/WX    TMP DP  RH WIND       PRES   REMARKS
GLASGOW        CLOUDY    18   9  68 NW21G30   30.02R WCI   1
GLENDIVE       CLOUDY    19  10  68 N20       29.93R WCI   3
JORDAN         CLOUDY    19  10  68 N25G31    29.98R WCI   1
SIDNEY         MOCLDY    19   9  65 N18G24    29.98R WCI   4
WOLF POINT     CLOUDY    19  10  68 N12       30.01R WCI   6
* BEAVER HILL  N/A       18  12  77 N26G33     N/A
* CIRCLE       N/A       19  11  71 N10G18     N/A   WCI   8
* LINDSAY DVD  N/A       16  12  84 NW25G33    N/A   WCI  -3
* NAVAJO       N/A       13   7  77 N29G38     N/A   WCI  -8
* PLENTYWOOD A CLOUDY    14   9  80 NW32G41   29.89F WCI  -7
* POPLAR APT   CLOUDY    18   9  68 NW18G25   30.00R WCI   2
* SACO         N/A       19   9  65 NW18G27    N/A   WCI   4
$$

MTZ028>042-056>058-030500-
SOUTHCENTRAL AND SOUTHEAST MONTANA
CITY           SKY/WX    TMP DP  RH WIND       PRES   REMARKS
BAKER          CLOUDY    19  12  74 N24G33    29.84R WCI   2
BILLINGS       LGT SNOW  19  18  96 NE17      29.91R VSB 1    WCI   4
LIVINGSTON     LGT SNOW  19  14  81 E16G26    29.88R VSB 1 1/2 WCI   4
MILES CITY     CLOUDY    21  12  68 N22G31    29.91S WCI   5
* BIG TIMBER A CLOUDY    18  10  71 N18G26    29.90R VSB 3    WCI   2
* FORSYTH APT  PTCLDY    21  12  68 NW17G26   29.94R WCI   7
* LAUREL APT   CLOUDY    21  16  81 N11        N/A   WCI   9
* ROUNDUP APT  CLOUDY    18   9  68 N18G31     N/A   WCI   2
* ALZADA       N/A       31  19  61 NW14G19    N/A   WCI  21
* HYSHAM       N/A       21  13  71 N12G22     N/A   WCI   9
* LAME DEER    N/A       20  18  92 VRB19G37    N/A   WCI   5
* REED POINT   N/A       22  16  78 NW4G11     N/A
* ROSCOE HILL  N/A       18  14  84 N8         N/A   WCI   8
$$

REGIONAL REPORTS...DAKOTAS
CITY           SKY/WX    TMP DP  RH WIND       PRES   REMARKS
WILLISTON      LGT SNOW  18   9  68 N23G29    29.93R WCI   1
DICKINSON      CLOUDY    23  16  74 NW28G35   29.78R WCI   6
BEACH          CLOUDY    18  14  84 N30       29.86R WCI  -1
CROSBY         MOCLDY    14   9  80 NW25G43   29.89R WCI  -5
TIOGA          LGT SNOW  14  12  92 NW18G30   29.89R WCI  -3
WATFORD CITY   LGT SNOW  18  12  77 N18G24    29.89R WCI   2
BISMARCK       CLOUDY    27  23  85 NW6       29.74R WCI  20
GRAND FORKS    MOCLDY    25  18  75 S20       29.80F WCI  11
FARGO          PTCLDY    27  18  69 S25G35    29.83F WCI  12
BUFFALO SD     CLOUDY    32  19  59 N24G32    29.65S WCI  19
RAPID CITY     CLOUDY    37  19  48 N14       29.68R WCI  28
$$

REGIONAL REPORTS...WYOMING/IDAHO/WASHINGTON
CITY           SKY/WX    TMP DP  RH WIND       PRES   REMARKS
GILLETTE       CLOUDY    32  16  52 N10       29.70R WCI  24
SHERIDAN       LGT SNOW  27  23  85 N13       29.81R VSB 3/4  WCI  16
CODY           CLOUDY    23  18  81 N15G28    29.77R VSB 3    WCI  10
YELLOWSTONE LA CLOUDY    19  16  88 VRB5      29.62R WCI  12
SALMON         CLOUDY    36  18  48 N17G23    29.70R WCI  26
MULLAN PASS    LGT SNOW  14  12  92 CALM      29.77S VSB 3/4
SAND POINT     CLOUDY    32  19  59 N18G28    30.01R WCI  21
SPOKANE        LGT SNOW  32  30  92 NE9       29.94R VSB 1 1/2 WCI  24
$$

REGIONAL REPORTS...ALBERTA
CITY           SKY/WX    TMP DP  RH WIND       PRES   REMARKS
CALGARY        PTCLDY     9   3  76 N8        30.17S WCI  -3
LETHBRIDGE     MOCLDY    14   3  61 N8G22     30.20R WCI   3
MEDICINE HAT   CLEAR     12   3  67 NW14G23   30.21R WCI  -4
EDMONTON       FAIR       7  -8  50 NW17G24   30.28R WCI -11
WATERTON GATE  N/A       10   9  96 N2         N/A
CARDSTON       N/A       12   9  88 NE8        N/A
MILK RIVER     N/A       12   7  80 NE16       N/A   WCI  -5
$$

REGIONAL REPORTS...SASKATCHEWAN
CITY           SKY/WX    TMP DP  RH WIND       PRES   REMARKS
SWIFT CURRENT  MOCLDY     5   0  80 NW24G32   30.04R WCI -17
REGINA         LGT SNOW   9   1  70 NW24G36   29.97R WCI -12
VAL MARIE      N/A       12   5  73 N23G29     N/A   WCI  -7
ASSINIBOIA     N/A        9   3  76 NW21       N/A   WCI -11
CORONACH       N/A       10   5  80 NW28G36    N/A   WCI -12

$$



USA.gov is the U.S. government's official web portal to all federal, state and local government web resources and services.